Location: ??
(35.4032°N, 139.3073°E)
Time: 05:55:46
(UTC+00:00)

Cosmos 1461 - Visible Passes

Search period start: 16 July 2024 00:00
Search period end: 26 July 2024 00:00
Orbit: 499 x 578 km, 65.0° (Epoch: 15 July)

Date Brightness Start Highest point End Pass type
(mag) Time Alt. Az. Time Alt. Az. Time Alt. Az.
16 Jul 5.0 16:20:33 10° NNW 16:21:54 20° NNW 16:21:54 20° NNW visible
17 Jul 5.4 16:11:59 10° NNW 16:12:41 15° NNW 16:12:41 15° NNW visible
18 Jul 5.6 16:03:25 10° NNW 16:03:37 11° NNW 16:03:37 11° NNW visible
21 Jul 5.8 14:01:09 10° NNE 14:01:27 11° NNE 14:01:27 11° NNE visible
22 Jul 5.7 13:52:04 10° N 13:52:37 12° NNE 13:52:37 12° NNE visible
23 Jul 5.6 13:43:06 10° N 13:43:49 13° NNE 13:43:49 13° NNE visible
24 Jul 5.6 13:34:09 10° N 13:35:02 14° N 13:35:02 14° N visible
25 Jul 5.4 13:25:14 10° N 13:26:17 16° N 13:26:17 16° N visible
